Regional Weather Roundup
Issued by NWS

Home | Current Version | Previous Version | Graphics & Text | Print | Product List | Glossary On
Versions: 1 2 3 4 5 6 7 8 9 10 11 12 13 14 15 16 17 18 19 20 21 22 23 24 25 26 27 28 29 30 31 32 33 34 35 36 37 38 39 40 41 42 43 44 45 46 47 48 49 50
000
ASUS43 KMKX 281700
RWRWI

WISCONSIN REGIONAL WEATHER ROUNDUP
NATIONAL WEATHER SERVICE MILWAUKEE/SULLIVAN WI
1200 PM CDT SAT MAY 28 2016

NOTE: "FAIR" INDICATES FEW OR NO CLOUDS BELOW 12,000 FEET WITH NO
SIGNIFICANT WEATHER AND/OR OBSTRUCTIONS TO VISIBILITY.

WIZ001-002-006>008-014>016-023>028-281800-
NORTHWEST WISCONSIN

CITY           SKY/WX    TMP DP  RH WIND       PRES   REMARKS
SUPERIOR ARPT  CLOUDY    50  49  97 E3        29.81R
ASHLAND        CLOUDY    58  53  84 NE5       29.80R
HAYWARD        CLOUDY    64  60  87 VRB3      29.79R
SIREN          CLOUDY    62  56  82 NE3       29.78S
CUMBERLAND     CLOUDY    61  59  94 CALM      29.78S
RICE LAKE      CLOUDY    66  60  83 CALM      29.78S
CHETEK         CLOUDY    68  64  86 CALM      29.77S
LADYSMITH      CLOUDY    69  64  84 CALM      29.78S
EAU CLAIRE     CLOUDY    73  64  73 VRB5      29.75S
MENOMONIE      CLOUDY    69  69  99 NW3       29.76S
NEW RICHMOND   CLOUDY    66  62  86 CALM      29.77S
OSCEOLA        CLOUDY    62  62 100 N3        29.80S
$$

WIZ003>005-009-010-017-018-281800-
NORTH CENTRAL WISCONSIN

CITY           SKY/WX    TMP DP  RH WIND       PRES   REMARKS
MANITOWISH WTR NOT AVBL
ARBOR VITAE    RAIN      69  67  92 SE7       29.79S
WOODRUFF       RAIN      69  67  92 SE7       29.79S
RHINELANDER    LGT RAIN  69  65  86 SE5       29.79S FOG
EAGLE RIVER      N/A     69  66  92 SE5       29.79S
LAND O LAKES   CLOUDY    68  66  91 SE7       29.81S
PHILLIPS       CLOUDY    70  65  85 CALM      29.76F
TOMAHAWK       CLOUDY    69  65  88 CALM      29.78S
MEDFORD        LGT RAIN  67  67 100 SE6       29.76S
MERRILL        NOT AVBL
$$

WIZ029-030-035-036-043>047-281800-
CENTRAL WISCONSIN

CITY           SKY/WX    TMP DP  RH WIND       PRES   REMARKS
WAUSAU         CLOUDY    72  66  81 S14       29.75S
MOSINEE        CLOUDY    70  68  94 S17G24    29.78S
MARSHFIELD     CLOUDY    72  66  81 SW15      29.76R
STEVENS POINT  CLOUDY    69  65  87 S13G21    29.79R
WAUPACA        CLOUDY    74  69  82 S12G18    29.81R
WAUTOMA        CLOUDY    73  65  75 SW14G22   29.82R
WISC RAPIDS    CLOUDY    72  64  76 SW17G24   29.80R
CAMP DOUGLAS   NOT AVBL
$$

WIZ011>013-019>022-031-037>040-048>050-281800-
NORTHEAST WISCONSIN

CITY           SKY/WX    TMP DP  RH WIND       PRES   REMARKS
ANTIGO         CLOUDY    67  66  96 S14G20    29.80S
SHAWANO        CLOUDY    73  68  84 S8G16     29.80S
OCONTO         CLOUDY   N/A N/A N/A S5        29.81S
STURGEON BAY   NOT AVBL
GREEN BAY      CLOUDY    75  65  70 S16G30    29.82R
MANITOWOC      NOT AVBL
APPLETON       CLOUDY    73  63  68 SW17      29.81R
CLINTONVILLE   CLOUDY    72  64  78 S14       29.80S
OSHKOSH        CLOUDY    75  65  70 SW20G25   29.82R
$$

WIZ032>034-041-042-053>061-281800-
SOUTHWEST WISCONSIN

CITY           SKY/WX    TMP DP  RH WIND       PRES   REMARKS
LA CROSSE      CLOUDY    72  63  73 SW9       29.78R
SPARTA         PTSUNNY   73  67  81 S12G18    29.79R
VIROQUA        CLOUDY    70  63  78 SW17G23   29.82R
BOSCOBEL       CLOUDY    74  64  71 S10       29.82R
PRAIRIE DU CHI CLOUDY    71  62  72 S6        29.81S
PLATTEVILLE    PTSUNNY   75  66  75 S20G25    29.84S
$$

WIZ056-057-062-063-064-067-068-281800-
SOUTH CENTRAL WISCONSIN

CITY           SKY/WX    TMP DP  RH WIND       PRES   REMARKS
REEDSBURG      CLOUDY    73  65  75 S15G21    29.82R
BARABOO/DELLS  PTSUNNY   73  62  69 S21       29.82R
LONE ROCK      CLOUDY    74  63  68 SW15G25   29.83S
MINERAL POINT  PTSUNNY   73  64  73 SW20      29.84F
MADISON        CLOUDY    76  65  68 SW10G21   29.83S
MIDDLETON      CLOUDY    76  66  71 SW12G18   29.84R
WATERTOWN      CLOUDY    75  68  78 S14       29.85S
MONROE         CLOUDY    73  64  73 S20G32    29.86R
JANESVILLE     PTSUNNY   79  66  65 S20G26    29.87R HX  81
$$

WIZ051-052-058>065-066-070>072-281800-
SOUTHEAST WISCONSIN

CITY           SKY/WX    TMP DP  RH WIND       PRES   REMARKS
MILWAUKEE      CLOUDY    77  66  68 S21G28    29.88S
WAUKESHA       PTSUNNY   73  64  73 S16       29.89R
MILWAUKEE/TIMM NOT AVBL
RACINE         CLOUDY    76  64  66 SE10G21   29.91R
BURLINGTON     CLOUDY    75  65  73 S10G20    29.88R
KENOSHA        CLOUDY    76  64  66 S17G28    29.90R
FOND DU LAC    CLOUDY    75  67  76 S18G28    29.83R
SHEBOYGAN      CLOUDY    74  66  76 S9        29.85S
WEST BEND      CLOUDY    75  64  69 S13G21    29.86R
JUNEAU         CLOUDY    73  66  78 S21G26    29.86S
$$

LSZ147-162-281800-
LAKE SUPERIOR

STATION/POSITION TIME  TEMP    WIND        PRES    WAVE
                       AIR SEA DIR/SP/G            HT/PER
                 (UTC) (F)     (DEG/KT/KT) (MB)    (FT/S)
W MID LAKE BUOY  1550   42 38   80/ 10/ 12 1009.3R   2/ 4
DEVILS ISLAND    1600   46     220/  1/  2 1009.4F
SAXON HARBOR     1600   51      50/  3/  5 1008.8R
$$

LMZ867-665-643>646-281800-
LAKE MICHIGAN

STATION/POSITION TIME  TEMP    WIND        PRES    WAVE
                       AIR SEA DIR/SP/G            HT/PER
                 (UTC) (F)     (DEG/KT/KT) (MB)    (FT/S)
CHAMBERS ISLAND  1600   68     140/  8/ 18 1010.2S
N MID LAKE BUOY  1550   55 46  170/ 12/ 14 1011.0F   2/ 5
NORTHPORT PIER   1600   62     150/ 12/ 17 1010.8S
SISTER BAY       1605   68     190/ 16/ 21   N/A
ALGOMA LAKESHORE 1617          210/  6/  8   N/A
KEWAUNEE LAKESHO 1600   53     180/ 11/ 12 1010.3R
SHEBOYGAN LAKESH 1600   57     170/ 19/ 21 1011.2R
PORT WASHINGTON  1640   62     180/  7/ 10 1012.2R
S MID LAKE BUOY  1550   55 50  150/ 12/ 14 1013.0R   2/ 4
KENOSHA   LAKESH 1600   62     180/ 14/ 16 1012.2R
$$

TC  - TEMPERATURE IN CELSIUS
VSB - VISIBILITY IN STATUTE MILES
WCI - WIND CHILL INDEX
HX  - HEAT INDEX





USA.gov is the U.S. government's official web portal to all federal, state and local government web resources and services.